{"data":{"norad_id":67404,"intl_designator":"2026-005A","name":"STARLINK-36484","alt_names":[],"object_type":"PAYLOAD","status":"ACTIVE","operator":null,"country":"US","launch_date":"2026-01-12","launch_site_code":"AFETR","launch_vehicle":null,"mission":null,"orbit_class":"UNKNOWN","rcs_meters":null,"size_class":null,"mass_kg":null,"dimensions":null,"purposes":["comms"],"wikipedia_slug":null,"has_3d_model":false,"image_url":null,"decayed_at":null,"tle_current":{"epoch":"2026-09-19T06:12:02.863008Z","epoch_age_seconds":182614,"freshness":"STALE","line1":"1 67404U 26005A   26262.25836647  .00009984  00000+0  37177-3 0  9990","line2":"2 67404  42.9986 224.5253 0001152 266.0735  93.9985 15.27585168 38307","mean_motion":15.27585168,"eccentricity":0.0001152,"inclination_deg":42.9986,"raan_deg":224.5253,"arg_perigee_deg":266.0735,"mean_anomaly_deg":93.9985,"bstar":0.00037177,"rev_number":3830,"period_min":94.266429798171,"perigee_km":482.24321437654,"apogee_km":483.82402808767,"semimajor_km":6861.1706212321,"source":"CELESTRAK","updated_at":"2026-09-20T09:00:43.518294Z"}}}